Weather History for Somerset, KY

Change the Weather History Date:

Tuesday, October 22, 2013

  Actual Average Record
Temperature  
Mean Temperature 47 °F -  
Max Temperature 53 °F 68 °F 80 °F (2000)
Min Temperature 41 °F 45 °F 32 °F (1997)
Degree Days  
Heating Degree Days 18    
Moisture  
Dew Point 41 °F    
Average Humidity 82    
Maximum Humidity 100    
Minimum Humidity 51    
Precipitation  
Precipitation 0.11 in - - ()
Sea Level Pressure  
Sea Level Pressure 29.99 in    
Wind  
Wind Speed 2 mph (NNE)    
Max Wind Speed 10 mph    
Max Gust Speed -    
Visibility 10 miles    
Events Rain    
Averages and records for this station are not official NWS values.
T = Trace of Precipitation, MM = Missing Value Source: NWS Daily Summary

Daily Weather History Graph

Daily Weather History Graph

Search for Another Location

Airport:

Trip Planner

Search our weather history database for the weather conditions in past years. The results will help you decide how hot, cold, wet, or windy it might be!

Date:

Astronomy

Oct. 22, 2013 Rise Set
Actual Time 7:52 AM EDT 6:52 PM EDT
Civil Twilight 7:26 AM EDT 7:18 PM EDT
Nautical Twilight 6:56 AM EDT 7:48 PM EDT
Astronomical Twilight 6:26 AM EDT 8:19 PM EDT
Moon 9:35 PM EDT (10/22) 11:16 AM EDT (10/22)
Length of Visible Light 11h 52m
Length of Day
10h 59m
Waning Gibbous, 87% of the Moon is Illuminated
Oct 22
Waning Gibbous
Oct 26
Last Quarter
Nov 3
New
Nov 10
First Quarter
Nov 17
Full

Hourly Weather History & Observations

Time (EDT) Temp. Windchill Dew Point Humidity Pressure Visibility Wind Dir Wind Speed Gust Speed Precip Events Conditions
12:15 AM 50.0 °F - 44.6 °F 82% 29.99 in 10.0 mi Calm Calm - N/A   Clear
12:35 AM 46.4 °F - 44.6 °F 93% 30.00 in 10.0 mi Calm Calm - N/A   Clear
12:55 AM 46.4 °F - 42.8 °F 87% 30.00 in 10.0 mi Calm Calm - N/A   Clear
1:15 AM 46.4 °F - 44.6 °F 93% 30.01 in 10.0 mi Calm Calm - N/A   Clear
1:35 AM 46.4 °F - 44.6 °F 93% 30.01 in 10.0 mi Calm Calm - N/A   Scattered Clouds
1:55 AM 48.2 °F - 44.6 °F 87% 30.01 in 10.0 mi Calm Calm - N/A   Scattered Clouds
2:15 AM 48.2 °F - 46.4 °F 93% 30.01 in 10.0 mi Calm Calm - N/A   Mostly Cloudy
2:35 AM 46.4 °F - 46.4 °F 100% 30.01 in 10.0 mi Calm Calm - N/A   Overcast
2:55 AM 50.0 °F - 46.4 °F 87% 30.01 in 10.0 mi Calm Calm - N/A   Overcast
3:15 AM 50.0 °F - 44.6 °F 82% 30.01 in 10.0 mi Calm Calm - N/A   Overcast
3:35 AM 50.0 °F - 46.4 °F 87% 30.02 in 10.0 mi Calm Calm - N/A   Overcast
3:55 AM 51.8 °F - 44.6 °F 76% 30.02 in 10.0 mi Calm Calm - N/A   Overcast
4:15 AM 51.8 °F - 46.4 °F 82% 30.02 in 10.0 mi WNW 4.6 mph - 0.01 in Rain Rain
4:35 AM 50.0 °F - 46.4 °F 87% 30.03 in 10.0 mi WNW 4.6 mph - 0.03 in Rain Light Rain
4:55 AM 50.0 °F - 48.2 °F 94% 30.03 in 10.0 mi WNW 3.5 mph - 0.04 in Rain Rain
5:15 AM 50.0 °F - 50.0 °F 100% 30.03 in 10.0 mi Calm Calm - N/A   Light Drizzle
5:35 AM 50.0 °F - 50.0 °F 100% 30.03 in 10.0 mi Calm Calm - N/A Rain Rain
5:55 AM 50.0 °F - 46.4 °F 87% 30.04 in 10.0 mi NNW 9.2 mph - N/A Rain Rain
6:15 AM 46.4 °F 42.9 °F 46.4 °F 100% 30.04 in 10.0 mi North 6.9 mph - 0.01 in Rain Light Rain
6:35 AM 46.4 °F 43.5 °F 44.6 °F 93% 30.04 in 10.0 mi North 5.8 mph - 0.01 in Rain Rain
6:55 AM 46.4 °F 45.2 °F 44.6 °F 93% 30.05 in 10.0 mi North 3.5 mph - 0.02 in Rain Light Rain
7:15 AM 46.4 °F 42.4 °F 44.6 °F 93% 30.05 in 10.0 mi North 8.1 mph - N/A Rain Light Rain
7:35 AM 44.6 °F 40.2 °F 42.8 °F 93% 30.06 in 10.0 mi NNE 8.1 mph - 0.01 in Rain Light Rain
7:55 AM 44.6 °F 43.1 °F 44.6 °F 100% 30.06 in 10.0 mi NNE 3.5 mph - 0.02 in Rain Light Rain
8:15 AM 44.6 °F 43.1 °F 44.6 °F 100% 30.06 in 7.0 mi NNE 3.5 mph - 0.02 in Rain Light Rain
8:35 AM 44.6 °F 41.4 °F 44.6 °F 100% 30.06 in 7.0 mi North 5.8 mph - 0.02 in Rain Rain
8:55 AM 42.8 °F 37.0 °F 37.4 °F 81% 30.07 in 10.0 mi NNE 10.4 mph - 0.02 in Rain Rain
9:15 AM 41.0 °F 36.4 °F 37.4 °F 87% 30.08 in 10.0 mi NNE 6.9 mph - 0.01 in Rain Light Rain
9:35 AM 41.0 °F 35.8 °F 37.4 °F 87% 30.08 in 10.0 mi NNE 8.1 mph - 0.01 in   Drizzle
9:55 AM 41.0 °F 37.1 °F 37.4 °F 87% 30.08 in 10.0 mi NE 5.8 mph - 0.01 in   Light Drizzle
10:15 AM 41.0 °F 37.1 °F 37.4 °F 87% 30.08 in 10.0 mi NE 5.8 mph - N/A   Overcast
10:35 AM 42.8 °F 40.1 °F 37.4 °F 81% 30.09 in 10.0 mi NE 4.6 mph - N/A   Overcast
10:55 AM 42.8 °F 41.1 °F 37.4 °F 81% 30.07 in 10.0 mi East 3.5 mph - N/A   Overcast
11:15 AM 42.8 °F 41.1 °F 37.4 °F 81% 30.07 in 10.0 mi East 3.5 mph - N/A   Overcast
11:35 AM 44.6 °F 41.4 °F 37.4 °F 76% 30.07 in 10.0 mi NNE 5.8 mph - N/A   Overcast
11:55 AM 44.6 °F - 35.6 °F 71% 30.06 in 10.0 mi Calm Calm - N/A   Overcast
12:15 PM 44.6 °F - 37.4 °F 76% 30.07 in 10.0 mi Calm Calm - N/A   Scattered Clouds
12:35 PM 44.6 °F 42.2 °F 37.4 °F 76% 30.05 in 10.0 mi NE 4.6 mph - N/A   Clear
12:55 PM 46.4 °F - 37.4 °F 71% 30.05 in 10.0 mi Calm Calm - N/A   Clear
1:15 PM 48.2 °F - 37.4 °F 66% 30.03 in 10.0 mi NNE 4.6 mph - N/A   Clear
1:35 PM 50.0 °F - 35.6 °F 58% 30.02 in 10.0 mi NE 3.5 mph - N/A   Clear
1:55 PM 50.0 °F - 37.4 °F 62% 30.00 in 10.0 mi Calm Calm - N/A   Clear
2:15 PM 51.8 °F - 37.4 °F 58% 29.98 in 10.0 mi SSW 4.6 mph - N/A   Clear
2:35 PM 51.8 °F - 37.4 °F 58% 29.96 in 10.0 mi Calm Calm - N/A   Scattered Clouds
2:55 PM 51.8 °F - 35.6 °F 54% 29.96 in 10.0 mi Calm Calm - N/A   Scattered Clouds
3:15 PM 53.6 °F - 39.2 °F 58% 29.95 in 10.0 mi Calm Calm - N/A   Scattered Clouds
3:35 PM 53.6 °F - 37.4 °F 54% 29.94 in 10.0 mi Calm Calm - N/A   Clear
3:55 PM 53.6 °F - 37.4 °F 54% 29.94 in 10.0 mi WSW 4.6 mph - N/A   Clear
4:15 PM 53.6 °F - 37.4 °F 54% 29.94 in 10.0 mi WNW 3.5 mph - N/A   Clear
4:35 PM 53.6 °F - 35.6 °F 51% 29.93 in 10.0 mi Calm Calm - N/A   Clear
4:55 PM 53.6 °F - 35.6 °F 51% 29.93 in 10.0 mi Calm Calm - N/A   Clear
5:15 PM 53.6 °F - 37.4 °F 54% 29.93 in 10.0 mi SW 4.6 mph - N/A   Clear
5:35 PM 53.6 °F - 37.4 °F 54% 29.92 in 10.0 mi Calm Calm - N/A   Clear
5:55 PM 53.6 °F - 39.2 °F 58% 29.91 in 10.0 mi SSE 3.5 mph - N/A   Clear
6:15 PM 51.8 °F - 41.0 °F 67% 29.91 in 10.0 mi Calm Calm - N/A   Clear
6:35 PM 51.8 °F - 41.0 °F 67% 29.91 in 10.0 mi SSW 4.6 mph - N/A   Scattered Clouds
6:55 PM 50.0 °F - 42.8 °F 76% 29.91 in 10.0 mi South 3.5 mph - N/A   Scattered Clouds
7:15 PM 48.2 °F - 42.8 °F 82% 29.91 in 10.0 mi Calm Calm - N/A   Clear
7:35 PM 48.2 °F - 42.8 °F 82% 29.91 in 10.0 mi Calm Calm - N/A   Clear
7:55 PM 46.4 °F - 42.8 °F 87% 29.91 in 10.0 mi Calm Calm - N/A   Scattered Clouds
8:15 PM 44.6 °F - 42.8 °F 93% 29.92 in 10.0 mi Calm Calm - N/A   Scattered Clouds
8:35 PM 44.6 °F - 44.6 °F 100% 29.91 in 10.0 mi Calm Calm - N/A   Clear
8:55 PM 44.6 °F - 42.8 °F 93% 29.91 in 10.0 mi Calm Calm - N/A   Clear
9:15 PM 42.8 °F - 42.8 °F 100% 29.91 in 10.0 mi Calm Calm - N/A   Clear
9:35 PM 42.8 °F - 42.8 °F 100% 29.91 in 10.0 mi Calm Calm - N/A   Scattered Clouds
9:55 PM 42.8 °F 41.1 °F 42.8 °F 100% 29.90 in 7.0 mi SE 3.5 mph - N/A   Clear
10:35 PM 41.0 °F - 41.0 °F 100% 29.90 in 7.0 mi Calm Calm - N/A   Scattered Clouds
11:15 PM 42.8 °F - 42.8 °F 100% 29.90 in 7.0 mi Calm Calm - N/A   Mostly Cloudy
11:35 PM 41.0 °F - 41.0 °F 100% 29.89 in 7.0 mi Calm Calm - N/A   Overcast
11:55 PM 41.0 °F - 41.0 °F 100% 29.88 in 7.0 mi Calm Calm - N/A   Overcast